Location: Newark
(52.1472°N, 117.4361°W)
Time: 19:57:00
(UTC+00:00)

Envisat - Visible Passes

Search period start: 23 September 2020 00:00
Search period end: 03 October 2020 00:00
Orbit: 764 x 766 km, 98.1° (Epoch: 23 September)

Date Brightness Start Highest point End Pass type
(mag) Time Alt. Az. Time Alt. Az. Time Alt. Az.
23 Sep 6.5 02:43:49 10° WSW 02:45:52 12° W 02:47:55 10° WNW visible
24 Sep 6.3 12:28:48 10° NE 12:31:18 14° E 12:33:48 10° ESE visible
26 Sep 6.3 02:31:24 10° WSW 02:34:19 15° W 02:37:15 10° NW visible
26 Sep 6.0 12:53:12 10° NE 12:57:06 22° E 13:00:59 10° SE visible
27 Sep 6.6 12:18:29 10° ENE 12:19:46 11° E 12:21:02 10° E visible
29 Sep 6.1 02:19:18 10° SW 02:22:49 19° W 02:26:21 10° NW visible
29 Sep 6.1 12:42:10 10° NE 12:45:36 18° E 12:49:01 10° SE visible
01 Oct 6.6 02:47:04 10° W 02:48:39 11° W 02:50:15 10° WNW visible
01 Oct 5.5 13:06:58 10° NNE 13:11:20 28° E 13:15:41 10° SSE visible
02 Oct 5.9 02:07:22 10° SW 02:11:19 23° W 02:15:17 10° NW visible
02 Oct 6.3 12:31:17 10° NE 12:34:05 15° E 12:36:53 10° ESE visible
